TimeCST,TemperatureF,Dew PointF,Humidity,Sea Level PressureIn,VisibilityMPH,Wind Direction,Wind SpeedMPH,Gust SpeedMPH,PrecipitationIn,Events,Conditions,WindDirDegrees,DateUTC
12:15 AM,30.6,25.2,80,30.10,7.0,NNW,3.5,-,N/A,,Clear,330,2013-12-01 06:15:00
12:35 AM,29.7,24.6,81,30.10,7.0,NNW,4.6,-,N/A,,Clear,330,2013-12-01 06:35:00
12:55 AM,29.7,24.6,81,30.11,7.0,NNW,3.5,-,N/A,,Clear,330,2013-12-01 06:55:00
1:15 AM,29.5,24.4,81,30.11,10.0,Calm,Calm,-,N/A,,Clear,0,2013-12-01 07:15:00
1:35 AM,29.3,24.3,81,30.11,7.0,NNW,3.5,-,N/A,,Clear,340,2013-12-01 07:35:00
1:55 AM,29.1,24.1,81,30.12,7.0,North,3.5,-,N/A,,Clear,360,2013-12-01 07:55:00
2:15 AM,29.3,24.3,81,30.12,10.0,North,4.6,-,N/A,,Clear,10,2013-12-01 08:15:00
2:35 AM,29.7,23.9,79,30.12,10.0,North,3.5,-,N/A,,Clear,10,2013-12-01 08:35:00
2:55 AM,29.3,23.9,80,30.12,10.0,NNE,3.5,-,N/A,,Clear,20,2013-12-01 08:55:00
3:15 AM,29.3,23.7,80,30.12,10.0,North,3.5,-,N/A,,Clear,10,2013-12-01 09:15:00
3:35 AM,28.6,23.0,80,30.12,10.0,Calm,Calm,-,N/A,,Clear,0,2013-12-01 09:35:00
3:55 AM,25.0,22.1,89,30.13,7.0,Calm,Calm,-,N/A,,Clear,0,2013-12-01 09:55:00
4:15 AM,23.4,23.2,99,30.13,5.0,Calm,Calm,-,N/A,,Clear,0,2013-12-01 10:15:00
4:35 AM,21.7,21.7,100,30.13,3.0,Calm,Calm,-,N/A,,Clear,0,2013-12-01 10:35:00
4:55 AM,20.5,20.5,100,30.14,4.0,Calm,Calm,-,N/A,,Clear,0,2013-12-01 10:55:00
5:15 AM,18.9,18.9,100,30.13,3.0,Calm,Calm,-,N/A,,Clear,0,2013-12-01 11:15:00
5:35 AM,17.4,17.4,100,30.14,4.0,Calm,Calm,-,N/A,,Clear,0,2013-12-01 11:35:00
5:55 AM,17.4,17.4,100,30.14,3.0,Calm,Calm,-,N/A,,Clear,0,2013-12-01 11:55:00
6:15 AM,16.3,16.3,100,30.14,4.0,Calm,Calm,-,N/A,,Clear,0,2013-12-01 12:15:00
6:35 AM,15.3,14.9,98,30.16,4.0,Calm,Calm,-,N/A,,Clear,0,2013-12-01 12:35:00
6:55 AM,15.3,15.3,100,30.15,4.0,Calm,Calm,-,N/A,,Clear,0,2013-12-01 12:55:00
7:15 AM,14.5,14.4,99,30.15,5.0,Calm,Calm,-,N/A,,Clear,0,2013-12-01 13:15:00
7:35 AM,14.4,14.4,100,30.15,4.0,Calm,Calm,-,N/A,,Clear,0,2013-12-01 13:35:00
7:55 AM,15.3,15.3,100,30.15,5.0,Calm,Calm,-,N/A,,Clear,0,2013-12-01 13:55:00
8:15 AM,17.8,17.8,100,30.16,5.0,Calm,Calm,-,N/A,,Clear,0,2013-12-01 14:15:00
8:35 AM,21.0,21.0,100,30.16,5.0,Calm,Calm,-,N/A,,Clear,0,2013-12-01 14:35:00
8:55 AM,24.6,24.3,99,30.16,5.0,Calm,Calm,-,N/A,,Clear,0,2013-12-01 14:55:00
9:15 AM,26.6,25.5,96,30.16,5.0,Calm,Calm,-,N/A,,Clear,0,2013-12-01 15:15:00
9:35 AM,28.4,26.2,92,30.16,7.0,Calm,Calm,-,N/A,,Clear,0,2013-12-01 15:35:00
9:55 AM,29.3,24.6,83,30.16,7.0,Calm,Calm,-,N/A,,Clear,0,2013-12-01 15:55:00
10:15 AM,30.7,24.4,77,30.16,7.0,Calm,Calm,-,N/A,,Clear,0,2013-12-01 16:15:00
10:35 AM,32.0,24.8,75,30.16,7.0,Calm,Calm,-,N/A,,Clear,0,2013-12-01 16:35:00
10:55 AM,32.4,25.0,74,30.16,7.0,Calm,Calm,-,N/A,,Clear,0,2013-12-01 16:55:00
11:15 AM,33.4,25.3,72,30.14,7.0,Calm,Calm,-,N/A,,Clear,0,2013-12-01 17:15:00
11:35 AM,34.7,25.3,69,30.13,10.0,NE,3.5,-,N/A,,Clear,40,2013-12-01 17:35:00
11:55 AM,36.3,25.2,64,30.12,10.0,Calm,Calm,-,N/A,,Clear,0,2013-12-01 17:55:00
12:15 PM,36.7,24.8,62,30.11,10.0,Calm,Calm,-,N/A,,Clear,0,2013-12-01 18:15:00
12:35 PM,37.4,23.0,56,30.11,10.0,ENE,3.5,-,N/A,,Clear,70,2013-12-01 18:35:00
12:55 PM,38.3,22.5,53,30.09,10.0,Calm,Calm,-,N/A,,Clear,0,2013-12-01 18:55:00
1:15 PM,38.1,22.8,54,30.08,10.0,Calm,Calm,-,N/A,,Clear,0,2013-12-01 19:15:00
1:35 PM,38.1,22.8,54,30.08,10.0,Calm,Calm,-,N/A,,Clear,0,2013-12-01 19:35:00
1:55 PM,38.5,23.0,54,30.07,10.0,Calm,Calm,-,N/A,,Scattered Clouds,0,2013-12-01 19:55:00
2:15 PM,38.3,23.9,56,30.06,10.0,NE,4.6,-,N/A,,Scattered Clouds,50,2013-12-01 20:15:00
2:35 PM,38.8,23.7,55,30.05,10.0,ENE,3.5,-,N/A,,Clear,60,2013-12-01 20:35:00
2:55 PM,38.5,23.5,55,30.05,10.0,East,4.6,-,N/A,,Clear,80,2013-12-01 20:55:00
3:15 PM,37.0,23.7,59,30.04,10.0,NE,3.5,-,N/A,,Clear,50,2013-12-01 21:15:00
3:35 PM,36.3,23.5,60,30.04,10.0,Calm,Calm,-,N/A,,Clear,0,2013-12-01 21:35:00
3:55 PM,34.7,23.9,65,30.04,10.0,North,4.6,-,N/A,,Clear,10,2013-12-01 21:55:00
4:15 PM,32.7,24.4,72,30.04,10.0,NNE,4.6,-,N/A,,Clear,20,2013-12-01 22:15:00
4:35 PM,30.9,24.1,76,30.04,10.0,Calm,Calm,-,N/A,,Clear,0,2013-12-01 22:35:00
4:55 PM,28.4,23.9,83,30.03,10.0,ENE,4.6,-,N/A,,Scattered Clouds,60,2013-12-01 22:55:00
5:15 PM,28.0,24.4,86,30.04,7.0,Calm,Calm,-,N/A,,Mostly Cloudy,0,2013-12-01 23:15:00
5:35 PM,30.0,25.7,84,30.03,7.0,NE,3.5,-,N/A,,Overcast,40,2013-12-01 23:35:00
5:55 PM,30.2,25.7,83,30.04,7.0,Calm,Calm,-,N/A,,Overcast,0,2013-12-01 23:55:00
6:15 PM,30.4,26.2,85,30.04,5.0,Calm,Calm,-,N/A,,Overcast,0,2013-12-02 00:15:00
6:35 PM,30.2,26.2,85,30.04,5.0,Calm,Calm,-,N/A,,Overcast,0,2013-12-02 00:35:00
6:55 PM,29.7,26.1,86,30.03,5.0,Calm,Calm,-,N/A,,Overcast,0,2013-12-02 00:55:00
7:15 PM,29.7,26.2,87,30.02,5.0,Calm,Calm,-,N/A,,Overcast,0,2013-12-02 01:15:00
7:35 PM,29.7,26.2,87,30.02,5.0,Calm,Calm,-,N/A,,Overcast,0,2013-12-02 01:35:00
7:55 PM,28.8,26.2,90,30.01,4.0,Calm,Calm,-,N/A,,Mostly Cloudy,0,2013-12-02 01:55:00
8:15 PM,27.3,26.8,98,30.01,4.0,Calm,Calm,-,N/A,,Scattered Clouds,0,2013-12-02 02:15:00
8:35 PM,26.8,26.6,99,30.00,4.0,Calm,Calm,-,N/A,,Clear,0,2013-12-02 02:35:00
8:55 PM,27.5,27.5,100,30.00,4.0,Calm,Calm,-,N/A,,Scattered Clouds,0,2013-12-02 02:55:00
9:15 PM,27.5,27.3,99,29.99,4.0,Calm,Calm,-,N/A,,Overcast,0,2013-12-02 03:15:00
9:35 PM,27.3,27.3,100,29.98,4.0,Calm,Calm,-,N/A,,Mostly Cloudy,0,2013-12-02 03:35:00
9:55 PM,24.8,24.6,99,29.98,3.0,Calm,Calm,-,N/A,,Scattered Clouds,0,2013-12-02 03:55:00
10:15 PM,23.2,23.2,100,29.97,1.8,Calm,Calm,-,N/A,,Mist,0,2013-12-02 04:15:00
10:35 PM,22.1,22.1,100,29.96,1.5,Calm,Calm,-,N/A,,Mist,0,2013-12-02 04:35:00
10:55 PM,20.1,20.1,100,29.96,1.5,Calm,Calm,-,N/A,,Mist,0,2013-12-02 04:55:00
11:15 PM,20.1,20.1,100,29.96,0.2,Calm,Calm,-,N/A,Fog,Light Freezing Fog,0,2013-12-02 05:15:00
11:35 PM,19.9,19.9,100,29.96,1.2,Calm,Calm,-,N/A,,Mist,0,2013-12-02 05:35:00
11:55 PM,21.6,21.6,100,29.95,1.0,Calm,Calm,-,N/A,,Overcast,0,2013-12-02 05:55:00